Погода в Каце

Погода в Каце : погода сейчас, прогноз погоды и архив. Всё, что Вы хотите узнать о погоде в Каце!

Поиск расширенной информации на нашем сайте:

Полезная информация: Плитка из резины резиновая плитка.

Другие новости

Новости СМИ2

Главная страница сайта

Новости сайта

03.07.2017

Напоминаем, что на нашем специализированном сайте Метеоцентр.Азия вы можете получить высокодетализированные автоматические прогнозы погоды по пунктам России, СНГ и мира в авиационном формате (включающие направление и скорость ветра, видимость, явления погоды, количество и форму облачности, нижнюю и верхнюю границу облачности).

Рекомендуем: Видеоинтерфейс, интерфейс hdmi мультимедийный: схема распиновки.

Погода в Каце - сегодня

Время (UTC), дата Ветер
(°,м/с) 
Видим.   Явления Облачность Т
(°С)
Тd
(°С)
f(%) Тe
(°С)
Pmin
(гПа)
dP
(гПа)
Po
(мм)
O2
(г/м3)
Тmin Tmax R s Состояние
почвы
15 17.02.18 250 (З) 20000 м    5/0 верхняя 
[Ci sp]
-18.5 -21.5 77 -23  1040.7  0.1  732  318           
18 17.02.18 240 (ЮЗ) 20000 м    8/0 верхняя 
[Ci sp]
-18.2 -21.4 76 -22  1040  -0.6  732  318           
21 17.02.18 240 (ЮЗ) 20000 м    4/0 верхняя 
[Ci fib]
-18.3 -21.4 77 -24  1039.8  -0.3  732  318           
00 18.02.18 250 (З) 20000 м    6/0 верхняя 
[Ci sp]
-18.6 -21.4 79 -23  1039.5  -0.3  731  318  -18.8      65  неравномерный
сухой снег
100% 
03 18.02.18 250 (З) 20000 м    9/9 2000 м средняя 
[As trans]
-16.8 -20.2 75 -22  1039.1  731  316           
12 18.02.18 220 (ЮЗ) 20000 м  {ливн. осадки}  6/6 2000 м средняя 
[As trans]
-14 -17.4 75 -16  1036.3  730  311    -12.4  0.2     
15 18.02.18 220 (ЮЗ) 20000 м    ясно 
-16.9 -20.5 74 -19  1036.7  -0.3  730  315           
18 18.02.18 240 (ЮЗ) 20000 м    5/0 верхняя 
[Ci fib]
-15.7 -19.7 71 -19  1035.6  -0.8  729  313           
21 18.02.18 230 (ЮЗ) 20000 м    5/0 верхняя 
[Ci fib]
-16.2 -19.3 77 -19  1035.4  -0.3  729  314           
00 19.02.18 160 (Ю) 20000 м    4/0 верхняя 
[Ci fib]
-18.5 -21.4 78 -19  1035.6  -0.4  729  316  -18.5      65  неравномерный
сухой снег
100% 
03 19.02.18 210 (ЮЗ) 20000 м    8/5 2000 м средняя, верхняя 
[As trans|Ci fib]
-16 -19.8 73 -18  1035  0.1  729  313           
12 19.02.18 230 (ЮЗ) 20000 м  {ливн. осадки}  8/8 2000 м средняя 
[As trans]
-13.3 -16.1 79 -18  1033.1  0.3  728  310    -10.5  0.2     
21 19.02.18 230 (ЮЗ) 10 км  слаб. снег  10/10 2000 м 
[Ns]
-12.5 -14.6 84 -17  1032.3  -0.5  727  308           
00 20.02.18 230 (ЮЗ) 10 км  слаб. снег  10/10 2000 м 
[Ns]
-11.5 -13.6 84 -16  1031.1  -0.8  727  307  -14    66  неравномерный
сухой снег
100% 
03 20.02.18 250 (З) 10 км  слаб. снег  10/10 2000 м 
[Ns]
-11.3 -13.4 84 -16  1031.5  0.4  727  307           
12 20.02.18 240 (ЮЗ) 10 км  слаб. снег  10/10 2000 м 
[Ns]
-10.9 -13 84 -14  1030.8  -0.3  727  306    -10     
15 20.02.18 240 (ЮЗ) 10 км  слаб. снег  10/10 2000 м 
[Ns]
-10.9 -12.9 85 -14  1030.4  -0.3  726  306           
18 20.02.18 240 (ЮЗ) 20000 м  слаб. снег  9/9 2000 м средняя 
[As trans]
-11.1 -12.8 87 -14  1029.4  -1  726  306           
21 20.02.18 240 (ЮЗ) 10 км  слаб. снег  10/10 2000 м 
[Ns]
-10.8 -12.5 87 -15  1028.3  -1  725  305           
00 21.02.18 250 (З) 10 км  слаб. снег  10/10 2000 м 
[Ns]
-10.6 -12.3 87 -15  1027.6  -0.6  724  305  -11.2    70  неравномерный
сухой снег
100% 
03 21.02.18 260 (З) 10 км  слаб. снег  10/10 2000 м 
[Ns]
-10.3 -12.2 86 -14  1027.4  -0.1  724  304           
06 21.02.18 260 (З) 10 км  слаб. снег  10/10 2000 м 
[Ns]
-9.6 -12.6 79 -14  1026.5  -0.6  724  303           
12 21.02.18 250 (З) 20000 м  слаб. ливневой снег  9/9 630 м кучево-дожд. 
[Cb cap]
-10.6 -12.4 87 -12  1026.2  0.1  723  304    -8.3     
15 21.02.18 тихо ()   20000 м  {ливн. осадки}  5/5 600 м кучево-дожд. 
[Cb cap]
-15.3 -17 87 -15  1026.7  -0.6  723  310           
21 21.02.18 тихо ()   н/о    н/о 
-21 -23.3 82 -21  1026.8  -0.4  722  317           
Время (UTC), дата Ветер
(°,м/с) 
Видим.   Явления Облачность Т
(°С)
Тd
(°С)
f(%) Тe
(°С)
Pmin
(гПа)
dP
(гПа)
Po
(мм)
O2
(г/м3)
Тmin Tmax R s Состояние
почвы

Для получения пояснительной информации подведите курсор к названию столбца.

ПОГОДА в Каце - архив

Всё, что Вы хотите узнать о погоде в Каце - удобно и подробно!

Выберите нужную дату (начиная с 1 января 2015* года) и нажмите кнопку "Найти".
Будут отображены архивные сводки погоды по пункту Каца, начиная с указанной даты.


Отображать данные в формате CSV (для использования в таблицах Excel)


Внимание! Наш архив погоды предназначен исключительно для личного некоммерческого использования в познавательных целях. Если Вам необходимы официальные справки о состоянии погоды (для производственных, юридических, коммерческих и т.п. целей), обращайтесь в органы Росгидромета.

*Примечание: данная дата относится к архиву по метеостанциям СССР (Россия, СНГ, Балтия).
Архив по метеостанциям Зарубежной Европы и Азии (кроме Китая) хранится 10 дней, по другим регионам земного шара (Китай, Африка, Америка, Австралия, Океания) - 1 день.

Каца - район местоположения метеостанции


Название, широта, долгота, высота метеостанции:
Каца 56.1°ш. 92.2°д. 479 м над ур. моря [Российская Федерация]

Дополнительная информация

В oтличие oт бoльшинства пoгoдных сайтoв мы публикуем пoдрoбную метеoинфoрмацию в детальнoм прoфессиoнальнoм фoрмате.

Характеристики температуры и влажнoсти вoздуха измеряются на высoте 2 м в тени вдали oт зданий и деревьев.
Скoрoсть ветра измеряется на высoте 10 м (на урoвне рoста челoвека скoрoсть ветра ниже в 1.5-2 раза). Если метеoстанция нахoдится в гoрoде или в лесу, тo скoрoсть ветра занижена на 2-4 м/с пo сравнению с oткрытым местoм. Скoрoсть ветра над акватoриями крупных рек и oзёр, а также на вершинах хoлмoв на 2-5 м/с выше, чем в oбычных услoвиях.
Атмoсфернoе давление в разных тoчках местнoсти мoжет значительнo oтличаться oт давления на метеoстанции, в зависимoсти oт услoвий рельефа (при пoдъёме на 10 м давление пoнижается примернo на 1 мм рт.ст.).